Christchurch, New Zealand

3:37 PM NZDT on March 26, 2017 (GMT +1300)
Christchurch International

Weather History for NZCH - April, 2013

Change the Weather History Date:

Monday, April 8, 2013

  Actual Average Record
Temperature  
Mean Temperature 50 °F -  
Max Temperature 64 °F 61 °F 69 °F (2012)
Min Temperature 37 °F 43 °F 33 °F (2004)
Degree Days  
Heating Degree Days 14    
Moisture  
Dew Point 43 °F    
Average Humidity 75    
Maximum Humidity 100    
Minimum Humidity 42    
Precipitation  
Precipitation 0.00 in - - ()
Sea Level Pressure  
Sea Level Pressure 30.10 in    
Wind  
Wind Speed 3 mph ()    
Max Wind Speed 10 mph    
Max Gust Speed -    
Visibility 5.3 miles    
Events Fog , Rain    
Averages and records for this station are not official NWS values.
T = Trace of Precipitation, MM = Missing Value Source: Averaged Metar Reports

Daily Weather History Graph

Daily Weather History Graph

Search for Another Location

Airport or City:

Trip Planner

Search our weather history database for the weather conditions in past years. The results will help you decide how hot, cold, wet, or windy it might be!

Date:

Astronomy

Apr. 08, 2013 Rise Set
Actual Time 6:54 AM NZST 6:08 PM NZST
Civil Twilight 6:25 AM NZST 6:37 PM NZST
Nautical Twilight 5:52 AM NZST 7:10 PM NZST
Astronomical Twilight 5:19 AM NZST 7:43 PM NZST
Moon 4:18 AM NZST (4/8) 4:43 PM NZST (4/8)
Length of Visible Light 12h 11m
Length of Day
11h 14m
Waning Crescent, 6% of the Moon is Illuminated
Apr 8
Waning Crescent
Apr 10
New
Apr 19
First Quarter
Apr 26
Full
May 2
Last Quarter

Hourly Weather History & Observations

Time (NZST) Temp. Dew Point Humidity Pressure Visibility Wind Dir Wind Speed Gust Speed Precip Events Conditions
12:00 AM 48.2 °F 46.4 °F 93% 30.21 in 6.2 mi ESE 1.2 mph - N/A Rain Light Rain
1:00 AM 48.2 °F 46.4 °F 93% 30.18 in 6.2 mi WSW 1.2 mph - N/A Rain Light Rain
2:00 AM 46.4 °F 46.4 °F 100% 30.18 in 6.2 mi Calm Calm - N/A Rain Light Rain
3:00 AM 42.8 °F 41.0 °F 93% 30.15 in 6.2 mi SE 1.2 mph - N/A   Scattered Clouds
4:00 AM 41.0 °F 39.2 °F 93% 30.15 in 0.1 mi SE 2.3 mph - N/A Fog Fog
5:00 AM 39.2 °F 37.4 °F 93% 30.12 in 1.9 mi WNW 1.2 mph - N/A Fog Fog
6:00 AM 39.2 °F 39.2 °F 100% 30.12 in 3.7 mi NW 2.3 mph - N/A   Scattered Clouds
7:00 AM 37.4 °F 37.4 °F 100% 30.12 in 6.2 mi Calm Calm - N/A   Partly Cloudy
8:00 AM 39.2 °F 39.2 °F 100% 30.12 in 6.2 mi SSE 1.2 mph - N/A Fog Partly Cloudy
9:00 AM 48.2 °F 46.4 °F 93% 30.12 in - Calm Calm - N/A   Clear
10:00 AM 55.4 °F 46.4 °F 72% 30.12 in - North 1.2 mph - N/A   Clear
11:00 AM 59.0 °F 42.8 °F 55% 30.12 in - SW 3.5 mph - N/A   Clear
12:00 PM 60.8 °F 42.8 °F 52% 30.09 in - WSW 4.6 mph - N/A   Clear
1:00 PM 64.4 °F 41.0 °F 42% 30.06 in - SSW 6.9 mph - N/A   Clear
2:00 PM 64.4 °F 42.8 °F 45% 30.04 in - SSW 9.2 mph - N/A   Clear
3:00 PM 64.4 °F 42.8 °F 45% 30.04 in - South 8.1 mph - N/A   Clear
4:00 PM 62.6 °F 41.0 °F 45% 30.04 in - South 10.4 mph - N/A   Clear
5:00 PM 60.8 °F 41.0 °F 48% 30.04 in - South 9.2 mph - N/A   Clear
6:00 PM 55.4 °F 41.0 °F 58% 30.04 in 6.2 mi South 6.9 mph - N/A   Scattered Clouds
7:00 PM 55.4 °F 42.8 °F 63% 30.06 in 6.2 mi SSW 5.8 mph - N/A   Scattered Clouds
8:00 PM 53.6 °F 44.6 °F 72% 30.06 in 6.2 mi SSW 3.5 mph - N/A   Scattered Clouds
9:00 PM 50.0 °F 42.8 °F 76% 30.06 in 6.2 mi South 5.8 mph - N/A   Scattered Clouds
10:00 PM 50.0 °F 44.6 °F 82% 30.09 in 6.2 mi West 3.5 mph - N/A   Scattered Clouds
11:00 PM 50.0 °F 44.6 °F 82% 30.09 in 6.2 mi WSW 2.3 mph - N/A   Scattered Clouds